CAPE
0 0 0 0 0 0 0 0 0 0 0 0 3 1 0 0 0 0 0 0 0 0 0 0 0 0 0 0 0 0 0 0 0 4 0 7 0 0 0 0 0 0 0
0 0 0 0 0 0 0 0 0 0 0 0 1 1 0 0 0 0 0 0 0 0 0 0 0 0 0 0 0 0 0 0 0 0 8 5 5 4 0 0 0 0 0
0 0 0 0 0 0 0 0 0 0 0 0 0 0 0 0 0 0 0 0 0 0 0 0 0 0 0 0 0 0 0 0 0 0 1 4 2 0 9 1 1 0 0
0 0 0 0 0 0 0 0 0 0 0 0 0 0 0 0 0 0 0 0 0 0 0 0 0 0 0 0 0 0 0 0 1 0 0 0 2 11 4 5 5 0 0
0 0 0 0 0 0 0 0 0 0 0 0 0 0 0 0 0 0 0 0 0 0 0 0 0 0 0 0 0 0 0 0 0 1 3 2 2 0 1 3 2 0 0
0 0 0 0 0 0 0 0 0 0 0 0 0 0 0 0 0 0 0 0 0 0 0 0 0 0 0 0 0 0 0 0 0 0 3 5 3 6 7 6 4 4 0
0 0 0 0 0 0 0 0 0 0 0 0 0 0 0 0 0 0 0 0 0 0 0 0 0 0 0 0 0 0 0 0 0 0 0 0 0 0 0 5 8 8 2
0 0 0 0 0 0 0 0 0 0 0 0 0 0 0 0 0 0 0 0 0 0 0 0 0 0 0 0 0 0 0 0 0 0 0 0 0 0 0 0 0 0 0
0 0 0 0 0 0 0 0 0 0 0 0 0 0 0 0 0 0 0 0 0 0 0 0 0 0 0 0 0 0 0 0 0 0 0 0 0 0 0 0 0 0 0
0 0 0 0 0 0 0 0 0 0 0 0 0 0 0 0 0 0 0 0 0 0 0 0 0 0 0 0 0 0 0 0 0 0 0 0 0 0 0 0 0 0 0
0 0 0 0 0 0 0 0 0 0 0 0 0 0 0 0 0 0 0 0 0 0 0 0 0 0 0 0 0 0 0 0 0 0 0 0 0 0 0 0 0 0 0
0 0 0 0 0 0 0 0 0 0 0 0 0 0 0 0 0 0 0 0 0 0 0 0 0 0 0 0 0 0 0 0 0 0 0 0 0 0 0 0 0 0 0
0 0 0 0 0 0 0 0 0 0 0 0 0 0 0 0 0 0 0 0 0 0 0 0 0 0 0 0 0 0 0 0 0 0 0 0 0 0 0 0 0 0 0
0 0 0 0 0 0 0 0 0 0 0 0 0 0 0 0 0 0 0 0 0 0 0 0 0 0 0 0 0 1 2 1 0 0 0 0 0 0 0 0 0 0 0
0 0 0 0 0 0 0 0 0 0 0 0 0 0 0 0 0 0 0 0 0 0 0 0 0 0 0 0 0 1 5 4 3 1 0 0 0 0 0 1 1 1 2
0 0 0 0 0 0 0 0 0 0 0 0 0 0 0 0 0 0 0 0 0 0 0 0 0 0 0 0 0 3 5 5 5 3 1 0 0 0 0 2 4 8 7
0 0 0 0 0 0 0 0 0 0 0 0 0 0 0 0 0 0 0 0 0 0 0 0 0 0 0 0 0 2 4 5 4 3 2 1 0 0 0 0 2 8 9
0 0 0 0 0 0 0 0 0 0 0 0 0 0 0 0 0 0 0 0 0 0 0 0 0 0 0 0 0 1 3 3 1 1 2 2 0 0 3 4 3 8 11
0 0 0 0 0 0 0 0 0 0 0 0 0 0 0 0 0 0 0 0 0 0 0 0 0 0 0 0 0 2 0 0 0 0 1 1 1 3 12 18 25 9 14
0 0 0 0 0 0 0 0 0 0 0 0 0 0 0 0 0 0 0 0 0 0 0 0 0 0 0 0 0 0 0 0 0 0 0 2 3 9 17 34 31 32 13
0 0 0 0 0 0 0 0 0 0 0 0 0 0 0 0 0 0 0 0 0 0 0 0 0 0 0 0 0 2 1 0 0 0 0 0 4 15 20 22 39 47 24
0 0 0 0 0 0 0 0 0 0 0 0 0 0 0 0 0 0 0 0 0 0 0 0 0 0 0 0 0 2 9 10 11 3 2 7 17 21 23 31 35 48 46
0 0 0 0 0 0 0 0 0 0 0 0 0 0 0 0 0 0 0 0 0 0 0 0 0 0 0 0 0 1 10 16 23 18 12 21 24 31 37 71 55 8 2
0 0 0 0 0 0 0 0 0 0 0 0 0 0 0 0 0 0 0 0 0 0 0 0 0 0 0 0 0 0 0 0 0 0 0 0 7 39 33 49 24 7 3
0 0 0 0 0 0 0 0 0 0 0 0 0 0 0 0 0 0 0 0 0 1 1 2 0 1 4 0 12 17 12 1 0 5 2 0 0 0 1 6 4 1 1
0 0 0 0 0 0 0 0 0 0 0 0 0 0 0 0 1 1 2 3 12 22 26 36 39 48 58 62 76 87 94 99 92 38 5 7 12 12 12 21 3 4 3
CIN
-0 -0 -0 -0 -0 -0 -0 -0 -0 -0 -0 -0 -0 -0 -0 -0 -0 -0 -0 -0 -0 -0 -0 -0 -0 -0 -0 -0 -0 -0 -0 -0 -0 -0 -0 -0 -0 -0 -0 -0 -0 -0 -0
-0 -0 -0 -0 -0 -0 -0 -0 -0 -0 -0 -0 -0 -0 -0 -0 -0 -0 -0 -0 -0 -0 -0 -0 -0 -0 -0 -0 -0 -0 -0 -0 -0 -0 -0 -0 -0 -0 -0 -0 -0 -0 -0
-0 -0 -0 -0 -0 -0 -0 -0 -0 -0 -0 -0 -0 -0 -0 -0 -0 -0 -0 -0 -0 -0 -0 -0 -0 -0 -0 -0 -0 -0 -0 -0 -0 -0 -0 -0 -0 -0 -0 -0 -0 -0 -0
-0 -0 -0 -0 -0 -0 -0 -0 -0 -0 -0 -0 -0 -0 -0 -0 -0 -0 -0 -0 -0 -0 -0 -0 -0 -0 -0 -0 -0 -0 -0 -0 -0 -0 -0 -0 -0 -0 -0 -0 -0 -0 -0
-0 -0 -0 -0 -0 -0 -0 -0 -0 -0 -0 -0 -0 -0 -0 -0 -0 -0 -0 -0 -0 -0 -0 -0 -0 -0 -0 -0 -0 -0 -0 -0 -0 -0 -0 -0 -0 -0 -0 -0 -0 -0 -0
-0 -0 -0 -0 -0 -0 -0 -0 -0 -0 -0 -0 -0 -0 -0 -0 -0 -0 -0 -0 -0 -0 -0 -0 -0 -0 -0 -0 -0 -0 -0 -0 -0 -0 -0 -0 -0 -0 -0 -0 -0 -0 -0
-0 -0 -0 -0 -0 -0 -0 -0 -0 -0 -0 -0 -0 -0 -0 -0 -0 -0 -0 -0 -0 -0 -0 -0 -0 -0 -0 -0 -0 -0 -0 -0 -0 -0 -0 -0 -0 -0 -0 -0 -0 -0 -0
-0 -0 -0 -0 -0 -0 -0 -0 -0 -0 -0 -0 -0 -0 -0 -0 -0 -0 -0 -0 -0 -0 -0 -0 -0 -0 -0 -0 -0 -0 -0 -0 -0 -0 -0 -0 -0 -0 -0 -0 -0 -0 -0
-0 -0 -0 -0 -0 -0 -0 -0 -0 -0 -0 -0 -0 -0 -0 -0 -0 -0 -0 -0 -0 -0 -0 -0 -0 -0 -0 -0 -0 -0 -0 -0 -0 -0 -0 -0 -0 -0 -0 -0 -0 -0 -0
-0 -0 -0 -0 -0 -0 -0 -0 -0 -0 -0 -0 -0 -0 -0 -0 -0 -0 -0 -0 -0 -0 -0 -0 -0 -0 -0 -0 -0 -0 -0 -0 -0 -0 -0 -0 -0 -0 -0 -0 -0 -0 -0
-0 -0 -0 -0 -0 -0 -0 -0 -0 -0 -0 -0 -0 -0 -0 -0 -0 -0 -0 -0 -0 -0 -0 -0 -0 -0 -0 -0 -0 -0 -0 -0 -0 -0 -0 -0 -0 -0 -0 -0 -0 -0 -0
-0 -0 -0 -0 -0 -0 -0 -0 -0 -0 -0 -0 -0 -0 -0 -0 -0 -0 -0 -0 -0 -0 -0 -0 -0 -0 -0 -0 -0 -0 -0 -0 -0 -0 -0 -0 -0 -0 -0 -0 -0 -0 -0
-0 -0 -0 -0 -0 -0 -0 -0 -0 -0 -0 -0 -0 -0 -0 -0 -0 -0 -0 -0 -0 -0 -0 -0 -0 -0 -0 -0 -0 -0 -0 -0 -0 -0 -0 -0 -0 -0 -0 -0 -0 -0 -0
-0 -0 -0 -0 -0 -0 -0 -0 -0 -0 -0 -0 -0 -0 -0 -0 -0 -0 -0 -0 -0 -0 -0 -0 -0 -0 -0 -0 -0 -0 -0 -0 -0 -0 -0 -0 -0 -0 -0 -0 -0 -0 -0
-0 -0 -0 -0 -0 -0 -0 -0 -0 -0 -0 -0 -0 -0 -0 -0 -0 -0 -0 -0 -0 -0 -0 -0 -0 -0 -0 -0 -0 -0 -0 -0 -0 -0 -0 -0 -0 -0 -0 -0 -0 -0 -0
-0 -0 -0 -0 -0 -0 -0 -0 -0 -0 -0 -0 -0 -0 -0 -0 -0 -0 -0 -0 -0 -0 -0 -0 -0 -0 -0 -0 -0 -0 -0 -0 -0 -0 -0 -0 -0 -0 -0 -0 -0 -0 -0
-0 -0 -0 -0 -0 -0 -0 -0 -0 -0 -0 -0 -0 -0 -0 -0 -0 -0 -0 -0 -0 -0 -0 -0 -0 -0 -0 -0 -0 -0 -0 -0 -0 -0 -0 -0 -0 -0 -0 -0 -0 -0 -0
-0 -0 -0 -0 -0 -0 -0 -0 -0 -0 -0 -0 -0 -0 -0 -0 -0 -0 -0 -0 -0 -0 -0 -0 -0 -0 -0 -0 -0 -0 -0 -0 -0 -0 -0 -0 -0 -0 -0 -0 -0 -0 -0
-0 -0 -0 -0 -0 -0 -0 -0 -0 -0 -0 -0 -0 -0 -0 -0 -0 -0 -0 -0 -0 -0 -0 -0 -0 -0 -0 -0 -0 -0 -0 -0 -0 -0 -0 -0 -0 -0 -0 -0 -0 -0 -0
-0 -0 -0 -0 -0 -0 -0 -0 -0 -0 -0 -0 -0 -0 -0 -0 -0 -0 -0 -0 -0 -0 -0 -0 -0 -0 -0 -0 -0 -0 -0 -0 -0 -0 -0 -0 -0 -0 -0 -0 -0 -0 -0
-0 -0 -0 -0 -0 -0 -0 -0 -0 -0 -0 -0 -0 -0 -0 -0 -0 -0 -0 -0 -0 -0 -0 -0 -0 -0 -0 -0 -0 -0 -0 -0 -0 -0 -0 -0 -0 -0 -0 -0 -0 -0 -0
-0 -0 -0 -0 -0 -0 -0 -0 -0 -0 -0 -0 -0 -0 -0 -0 -0 -0 -0 -0 -0 -0 -0 -0 -0 -0 -0 -0 -0 -0 -0 -0 -0 -0 -0 -0 -0 -0 -0 -0 -0 -0 -0
-0 -0 -0 -0 -0 -0 -0 -0 -0 -0 -0 -0 -0 -0 -0 -0 -0 -0 -0 -0 -0 -0 -0 -0 -0 -0 -0 -0 -0 -0 -0 -0 -0 -0 -0 -0 -0 -0 -0 -0 -0 -0 -0
-0 -0 -0 -0 -0 -0 -0 -0 -0 -0 -0 -0 -0 -0 -0 -0 -0 -0 -0 -0 -0 -0 -0 -0 -0 -0 -0 -0 -0 -0 -0 -0 -0 -0 -0 -0 -0 -0 -0 -0 -0 -1 -0
-0 -0 -0 -0 -0 -0 -0 -0 -0 -0 -0 -0 -0 -0 -0 -0 -0 -0 -0 -0 -0 -0 -0 -0 -0 -0 -0 -0 -0 -0 -0 -0 -0 -1 -0 -0 -0 -0 -0 -0 -0 -0 -0
-0 -0 -0 -0 -0 -0 -0 -0 -0 -0 -0 -0 -0 -0 -0 -0 -0 -0 -0 -0 -0 -0 -0 -0 -0 -0 -0 -0 -0 -0 -0 -0 -0 -0 -4 -0 -0 -0 -0 -0 -0 -0 -0
Wind_Speed
6 6 7 7 8 11 13 14 13 12 8 4 3 5 7 7 8 9 13 13 12 12 11 8 10 9 9 10 10 7 7 7 8 4 5 3 3 5 5 6 7 9 8
6 6 7 9 11 11 12 12 12 11 9 6 4 4 4 7 7 8 12 13 14 14 12 11 10 12 8 12 12 11 5 5 9 5 4 2 3 5 5 5 6 9 7
7 6 7 8 9 10 11 11 10 11 10 9 4 3 4 5 6 9 8 11 13 14 14 14 11 11 10 9 10 11 12 6 5 9 5 3 3 8 3 3 5 8 8
8 7 7 7 9 8 9 10 10 11 11 10 8 11 8 6 6 7 8 9 14 14 14 14 13 12 9 11 10 9 8 8 7 3 7 5 5 4 5 3 5 8 9
10 9 7 7 8 8 8 9 10 11 12 12 10 7 9 7 5 6 8 10 10 13 13 13 12 11 9 10 11 11 10 8 6 7 6 4 3 7 4 6 6 8 8
12 10 8 8 7 7 8 8 10 11 11 11 12 12 11 9 7 8 7 7 7 8 13 12 11 11 10 10 9 10 12 9 9 7 7 7 4 5 4 3 7 9 7
14 11 10 8 7 7 7 8 9 11 10 11 11 11 11 10 10 8 7 8 7 7 11 11 11 9 10 10 9 9 10 9 9 9 6 6 6 5 4 4 5 4 6
13 12 10 9 8 8 8 8 8 9 9 10 11 9 9 7 7 9 7 6 6 7 9 9 9 10 10 9 8 7 7 8 7 10 8 5 6 6 5 5 6 6 4
15 14 11 9 8 7 7 7 8 9 8 8 8 9 8 9 8 8 7 6 7 6 8 9 9 9 9 9 7 6 7 7 7 7 7 6 5 5 5 5 4 5 5
16 13 11 10 8 7 7 7 7 8 7 7 6 7 7 8 7 7 8 8 7 8 8 9 9 9 9 9 8 6 7 7 6 5 7 6 6 5 5 5 4 4 6
15 13 11 10 8 7 7 6 6 7 6 6 6 6 6 6 6 6 6 6 7 7 8 8 8 8 8 8 7 7 7 7 7 7 7 7 8 6 5 5 5 5 5
15 13 12 11 9 8 6 6 6 6 5 5 5 5 5 5 5 6 6 6 6 6 6 7 7 7 7 7 7 6 6 6 7 7 7 8 7 8 7 6 8 7 8
15 13 11 9 8 7 6 5 4 4 4 3 3 4 4 4 4 5 5 5 5 6 6 6 6 7 7 6 6 6 6 6 6 7 7 8 9 8 7 8 8 7 7
16 13 10 8 7 6 5 4 4 3 2 2 2 2 3 3 3 3 4 4 4 4 5 5 5 5 6 6 6 7 7 7 6 7 7 8 8 8 10 8 9 8 9
14 12 10 9 7 6 4 4 3 2 1 0 1 1 1 2 3 3 3 3 3 4 4 5 5 5 6 4 7 8 8 7 7 6 8 8 10 13 12 8 9 10 8
14 12 11 9 7 6 5 4 4 3 2 2 2 3 3 3 3 4 3 4 4 4 4 5 5 6 5 11 13 11 9 8 8 9 8 8 11 10 13 13 14 13 10
15 13 10 8 6 5 4 4 3 1 3 3 4 4 4 4 4 4 5 5 6 5 6 7 7 8 8 13 14 14 9 10 9 10 10 9 8 11 9 12 16 14 14
14 11 8 7 5 4 3 2 1 3 3 4 5 5 4 6 6 6 7 7 7 7 7 8 8 9 8 14 15 16 12 10 11 11 11 11 11 10 11 11 12 12 10
11 9 7 6 5 4 3 3 3 3 4 5 6 6 6 7 7 7 8 7 8 9 9 9 10 10 11 15 16 14 11 12 13 11 11 12 12 15 18 12 12 11 11
9 8 6 4 3 3 4 2 3 5 6 6 6 6 6 7 8 9 9 9 9 10 9 11 11 14 13 17 17 15 10 12 11 12 13 18 15 19 21 12 10 11 12
9 6 5 3 2 3 3 4 5 6 6 6 7 7 7 8 9 10 9 10 10 11 11 12 12 13 14 15 19 19 12 11 11 11 10 10 18 20 19 20 12 13 11
7 5 4 2 2 3 4 5 5 5 5 6 8 8 8 7 8 10 10 11 11 12 12 12 11 10 11 16 18 20 21 19 13 13 12 13 21 22 22 19 22 16 13
6 4 3 2 3 3 4 5 4 5 6 7 8 8 9 9 9 10 10 9 10 10 10 9 10 10 9 9 18 21 22 22 15 12 16 25 25 26 22 20 16 15 8
5 4 3 2 2 3 4 5 6 6 7 8 8 8 9 10 9 8 8 8 8 9 10 10 11 10 10 10 9 10 11 16 15 17 15 19 23 24 18 14 11 7 7
5 4 4 4 5 6 6 7 7 8 8 8 8 9 8 9 9 8 8 8 10 11 10 11 11 12 12 12 18 17 11 11 15 16 11 11 11 10 11 10 9 8 8
5 5 5 5 6 6 7 6 6 6 7 7 6 6 7 7 7 8 9 14 17 20 21 23 19 11 21 26 26 26 27 28 28 13 11 12 12 13 11 9 7 7 10
Wind_Direction
99 69 56 51 52 47 42 33 33 24 22 15 12 52 54 50 50 46 38 34 29 28 28 30 28 24 35 30 23 21 22 29 0 351 347 70 106 33 36 32 63 42 31
130 91 64 54 47 45 44 41 36 31 28 25 21 48 76 63 57 50 43 34 32 28 33 32 31 30 26 25 27 23 7 37 27 5 314 345 136 29 58 73 40 35 32
141 109 76 63 60 49 44 46 39 40 33 32 42 97 98 66 50 43 41 35 34 35 33 32 32 32 31 30 29 20 21 6 27 26 353 327 355 328 138 69 47 19 8
148 129 109 80 69 58 56 54 49 45 42 36 57 65 62 73 50 47 44 42 36 35 33 34 34 34 32 30 27 22 25 15 27 3 17 357 348 343 309 293 358 3 347
154 138 117 94 78 74 63 58 60 55 51 52 52 66 73 68 57 54 49 43 41 38 36 35 35 36 36 32 30 30 30 34 29 29 2 6 1 26 320 304 341 339 353
152 138 123 113 95 81 78 69 66 58 58 58 61 64 68 67 64 54 54 47 45 38 33 35 35 35 33 29 29 33 34 33 33 27 41 37 19 10 360 327 336 323 321
156 148 141 126 109 93 81 76 71 66 61 65 62 63 68 67 64 55 48 48 43 37 30 30 33 32 30 30 32 34 36 35 36 31 24 35 30 21 354 321 330 324 313
157 150 142 128 115 102 92 85 79 75 66 64 64 60 58 59 60 54 54 50 45 39 28 31 34 32 30 27 31 36 35 32 39 36 31 31 25 13 4 355 333 317 291
154 150 143 132 123 110 95 91 89 81 71 67 67 63 59 60 60 56 51 49 42 31 28 29 30 30 29 25 25 38 28 30 28 30 26 22 17 8 1 350 340 330 317
152 146 142 136 124 113 106 97 89 83 77 74 65 65 61 56 54 53 49 42 37 30 28 25 25 23 23 19 20 23 23 18 23 16 14 14 1 351 343 339 325 311 297
153 148 141 135 130 122 114 106 96 90 79 71 70 69 63 56 54 52 44 35 34 24 28 22 21 21 19 17 19 18 16 10 4 6 2 356 348 341 332 327 316 307 299
152 148 145 143 141 133 124 113 106 96 82 74 72 66 61 56 52 47 39 32 31 26 22 18 18 16 14 11 12 9 5 359 354 354 348 344 339 332 330 325 314 302 303
147 145 146 147 141 136 131 122 110 100 83 69 67 64 54 49 44 39 29 27 17 16 14 14 11 3 356 350 349 346 342 342 336 339 339 334 330 326 324 314 308 308 305
151 149 147 145 142 140 140 135 127 108 100 69 51 58 39 19 4 356 3 5 356 355 356 349 342 341 330 321 315 326 326 323 320 320 325 320 316 312 315 309 307 316 311
150 153 151 149 151 151 151 153 144 141 108 61 296 317 307 288 291 284 296 310 315 324 318 321 326 323 312 304 307 308 305 308 298 298 305 306 303 299 299 299 313 306 303
150 148 146 146 154 157 159 167 157 164 210 263 279 287 278 275 268 272 275 286 296 297 299 302 299 302 302 298 302 301 301 299 296 293 298 291 291 290 288 298 294 290 298
147 147 147 147 149 159 159 169 159 181 250 270 276 272 281 287 289 287 288 285 286 293 290 288 288 287 289 293 297 299 300 296 295 288 289 286 284 292 292 287 289 291 289
146 149 146 143 136 139 155 135 191 253 265 281 288 286 280 281 283 276 272 278 281 284 290 291 289 288 285 285 291 293 290 285 284 279 276 275 279 276 273 273 274 270 265
147 148 133 123 130 151 166 206 240 262 274 274 275 275 266 268 272 275 280 280 282 281 281 280 279 277 280 285 288 289 294 282 280 274 268 265 268 270 272 267 269 281 282
123 129 130 123 156 172 179 208 265 273 274 272 271 271 273 278 282 284 284 282 277 278 281 281 280 279 281 282 282 282 278 277 277 276 271 268 266 266 267 265 274 272 274
120 121 130 144 159 159 179 244 265 274 290 291 289 285 279 279 282 285 284 285 284 281 278 278 278 276 272 275 275 274 271 271 274 272 271 270 270 269 272 275 262 263 267
126 131 132 151 201 204 211 257 271 299 292 290 291 293 292 288 288 288 288 287 283 281 280 280 280 276 274 272 273 274 270 268 266 264 264 266 271 273 274 271 267 274 262
123 129 141 168 201 211 231 283 328 312 308 301 296 297 297 293 289 288 288 287 283 280 282 281 282 283 283 278 277 277 276 274 270 268 272 272 269 268 263 281 275 273 270
126 137 142 101 38 14 348 327 324 323 316 309 309 309 306 303 304 304 293 288 289 288 287 286 284 285 283 278 273 269 272 275 277 278 275 270 268 257 258 272 286 275 262
91 67 39 17 358 352 346 340 333 331 321 318 315 313 310 309 305 297 296 291 285 277 273 266 264 270 269 269 271 268 257 248 251 254 250 252 250 257 265 261 250 252 255
53 39 15 356 352 344 338 337 332 320 311 305 304 308 308 307 299 300 301 295 293 295 295 295 294 289 289 290 289 285 283 280 282 264 247 243 239 242 242 243 241 241 259